Location: Casilda
(33.0440°S, 61.1680°W)
Time: 21:45:39
(UTC-03:00)

ISS - Pass Details

Date: 27 January 2023
Orbit: 413 x 419 km, 51.6° (Epoch: 30 January)

Event Time Altitude Azimuth Distance (km) Brightness Sun altitude
Exits shadow 03:36:07 18° 153° (SSE) 1,097 -0.9 -28.7°
Drops below altitude 10° 03:37:12 10° 146° (SE) 1,509 0.0 -28.6°
Sets 03:39:22 0° 139° (SE) 2,378 1.3 -28.3°
